N510MV KPSP-KVNY

Flight info

Callsign N510MV
Flight time 0h 41m
Altitude 12000
Route PSP V388 DEWAY POM VNY
Aircraft C510/L-SDFGRWY/LB1

Departure

Time 2026-04-23 03:02
Airport Palm Springs International Airport (KPSP)

Arrival

Time 2026-04-23 03:44
Airport Van Nuys Airport (KVNY)
Time Latitude Longitude Altitude Speed Heading
2026-04-23 02:29 33.82578 -116.50792 422 ft 0 kts 272°
2026-04-23 02:52 33.82575 -116.50804 421 ft 2 kts 230°
2026-04-23 02:52 33.82541 -116.50778 420 ft 7 kts 109°
2026-04-23 02:53 33.82536 -116.50723 420 ft 5 kts 88°
2026-04-23 02:53 33.82531 -116.50668 419 ft 8 kts 106°
2026-04-23 02:53 33.82532 -116.50588 418 ft 13 kts 135°
2026-04-23 02:53 33.82444 -116.50507 416 ft 18 kts 142°
2026-04-23 02:54 33.82333 -116.50406 413 ft 21 kts 143°
2026-04-23 02:54 33.82202 -116.50291 410 ft 24 kts 144°
2026-04-23 02:54 33.82054 -116.50159 406 ft 27 kts 143°
2026-04-23 02:54 33.81913 -116.50034 403 ft 23 kts 144°
2026-04-23 02:55 33.81852 -116.49933 402 ft 11 kts 86°
2026-04-23 02:55 33.81853 -116.49901 401 ft 0 kts 89°
2026-04-23 03:00 33.81853 -116.49865 401 ft 7 kts 83°
2026-04-23 03:01 33.81886 -116.49819 401 ft 7 kts
2026-04-23 03:01 33.81956 -116.49867 402 ft 31 kts 324°
2026-04-23 03:01 33.82323 -116.50194 411 ft 92 kts 322°
2026-04-23 03:01 33.82860 -116.50656 633 ft 100 kts 324°
2026-04-23 03:02 33.83432 -116.51138 1061 ft 97 kts 323°
2026-04-23 03:02 33.83988 -116.51582 1432 ft 102 kts 329°
2026-04-23 03:02 33.84769 -116.51668 1759 ft 130 kts 23°
2026-04-23 03:02 33.85195 -116.50712 2248 ft 147 kts 80°
2026-04-23 03:03 33.85168 -116.49425 2684 ft 162 kts 98°
2026-04-23 03:03 33.85044 -116.48055 3236 ft 168 kts 90°
2026-04-23 03:03 33.85189 -116.46723 3933 ft 162 kts 67°
2026-04-23 03:03 33.85814 -116.45607 4448 ft 166 kts 50°
2026-04-23 03:04 33.86576 -116.44553 4960 ft 173 kts 38°
2026-04-23 03:04 33.87647 -116.44100 5588 ft 164 kts 352°
2026-04-23 03:04 33.88599 -116.44682 6177 ft 157 kts 310°
2026-04-23 03:04 33.89214 -116.45724 6761 ft 155 kts 296°
2026-04-23 03:05 33.89640 -116.46911 7312 ft 156 kts 289°
2026-04-23 03:05 33.89968 -116.48154 7892 ft 155 kts 285°
2026-04-23 03:05 33.90240 -116.49384 8426 ft 156 kts 284°
2026-04-23 03:05 33.90467 -116.50648 8975 ft 155 kts 272°
2026-04-23 03:06 33.90273 -116.51917 9442 ft 161 kts 262°
2026-04-23 03:06 33.90252 -116.53325 9776 ft 173 kts 278°
2026-04-23 03:06 33.90451 -116.54755 10264 ft 177 kts 281°
2026-04-23 03:06 33.90726 -116.56184 10822 ft 177 kts 284°
2026-04-23 03:07 33.91036 -116.57604 11399 ft 175 kts 284°
2026-04-23 03:07 33.91354 -116.59010 11888 ft 177 kts 284°
2026-04-23 03:07 33.91704 -116.60518 12006 ft 198 kts 285°
2026-04-23 03:07 33.92099 -116.62201 12029 ft 220 kts 286°
2026-04-23 03:08 33.92527 -116.64037 12028 ft 237 kts 285°
2026-04-23 03:08 33.92997 -116.66013 12041 ft 250 kts 285°
2026-04-23 03:08 33.93471 -116.68048 12169 ft 254 kts 285°
2026-04-23 03:08 33.93959 -116.70115 12009 ft 252 kts 286°
2026-04-23 03:09 33.94435 -116.72149 12175 ft 252 kts 285°
2026-04-23 03:09 33.94893 -116.74184 12179 ft 252 kts 283°
2026-04-23 03:09 33.95146 -116.76251 12168 ft 252 kts 278°
2026-04-23 03:09 33.95432 -116.78335 12036 ft 250 kts 279°
2026-04-23 03:10 33.95684 -116.80403 12112 ft 247 kts 279°
2026-04-23 03:10 33.95953 -116.82458 12181 ft 249 kts 279°
2026-04-23 03:10 33.96212 -116.84521 12144 ft 247 kts 280°
2026-04-23 03:10 33.96472 -116.86575 12168 ft 248 kts 279°
2026-04-23 03:11 33.96735 -116.88609 12084 ft 247 kts 280°
2026-04-23 03:11 33.96991 -116.90660 12086 ft 244 kts 280°
2026-04-23 03:11 33.97249 -116.92668 12103 ft 242 kts 279°
2026-04-23 03:11 33.97498 -116.94648 12166 ft 241 kts 279°
2026-04-23 03:12 33.97753 -116.96649 12184 ft 242 kts 280°
2026-04-23 03:12 33.98008 -116.98673 12140 ft 241 kts 280°
2026-04-23 03:12 33.98255 -117.00642 12128 ft 240 kts 280°
2026-04-23 03:12 33.98507 -117.02634 12139 ft 239 kts 280°
2026-04-23 03:13 33.98755 -117.04608 12137 ft 239 kts 279°
2026-04-23 03:13 33.99008 -117.06610 12134 ft 239 kts 280°
2026-04-23 03:13 33.99256 -117.08583 12134 ft 239 kts 279°
2026-04-23 03:13 33.99502 -117.10551 12137 ft 239 kts 279°
2026-04-23 03:14 33.99748 -117.12529 12138 ft 239 kts 279°
2026-04-23 03:14 33.99997 -117.14523 12132 ft 239 kts 279°
2026-04-23 03:14 34.00242 -117.16492 12132 ft 236 kts 280°
2026-04-23 03:14 34.00485 -117.18439 12128 ft 234 kts 280°
2026-04-23 03:15 34.00728 -117.20353 12131 ft 232 kts 279°
2026-04-23 03:15 34.00964 -117.22281 12135 ft 230 kts 280°
2026-04-23 03:15 34.01199 -117.24176 12130 ft 229 kts 280°
2026-04-23 03:15 34.01436 -117.26068 12137 ft 228 kts 280°
2026-04-23 03:16 34.01672 -117.27970 12134 ft 228 kts 279°
2026-04-23 03:16 34.01904 -117.29843 12138 ft 227 kts 279°
2026-04-23 03:16 34.02367 -117.33606 12137 ft 226 kts 280°
2026-04-23 03:17 34.02596 -117.35487 12136 ft 226 kts 280°
2026-04-23 03:17 34.02826 -117.37348 12136 ft 225 kts 280°
2026-04-23 03:17 34.03055 -117.39211 12141 ft 225 kts 280°
2026-04-23 03:17 34.03287 -117.41082 12136 ft 225 kts 280°
2026-04-23 03:18 34.03516 -117.42962 12139 ft 225 kts 280°
2026-04-23 03:18 34.03744 -117.44806 12140 ft 225 kts 280°
2026-04-23 03:18 34.03970 -117.46676 12144 ft 225 kts 280°
2026-04-23 03:18 34.04200 -117.48537 12141 ft 225 kts 280°
2026-04-23 03:19 34.04426 -117.50423 12142 ft 225 kts 280°
2026-04-23 03:19 34.04653 -117.52271 12141 ft 225 kts 279°
2026-04-23 03:19 34.04881 -117.54136 12144 ft 225 kts 280°
2026-04-23 03:19 34.05108 -117.56012 12141 ft 225 kts 280°
2026-04-23 03:20 34.05334 -117.57885 12145 ft 224 kts 280°
2026-04-23 03:20 34.05561 -117.59757 12142 ft 224 kts 280°
2026-04-23 03:20 34.05785 -117.61620 12143 ft 224 kts 280°
2026-04-23 03:20 34.06013 -117.63503 12146 ft 229 kts 280°
2026-04-23 03:21 34.06245 -117.65413 12149 ft 232 kts 279°
2026-04-23 03:21 34.06478 -117.67337 12152 ft 235 kts 280°
2026-04-23 03:21 34.06715 -117.69299 12154 ft 237 kts 279°
2026-04-23 03:21 34.06955 -117.71285 12150 ft 239 kts 279°
2026-04-23 03:22 34.07191 -117.73279 12152 ft 240 kts 279°
2026-04-23 03:22 34.07431 -117.75278 12150 ft 242 kts 279°
2026-04-23 03:22 34.07673 -117.77313 12151 ft 243 kts 279°
2026-04-23 03:22 34.07954 -117.79327 12149 ft 243 kts 284°
2026-04-23 03:23 34.08385 -117.81286 12147 ft 243 kts 284°
2026-04-23 03:23 34.08792 -117.83273 12147 ft 244 kts 285°
2026-04-23 03:23 34.09211 -117.85259 12152 ft 246 kts 285°
2026-04-23 03:23 34.09632 -117.87294 12155 ft 249 kts 285°
2026-04-23 03:24 34.10057 -117.89315 12150 ft 251 kts 284°
2026-04-23 03:24 34.10483 -117.91370 12153 ft 253 kts 284°
2026-04-23 03:24 34.10916 -117.93460 12153 ft 254 kts 285°
2026-04-23 03:24 34.11344 -117.95527 12154 ft 255 kts 285°
2026-04-23 03:25 34.11771 -117.97586 12146 ft 256 kts 285°
2026-04-23 03:25 34.12207 -117.99687 12145 ft 255 kts 285°
2026-04-23 03:25 34.12637 -118.01762 12152 ft 254 kts 284°
2026-04-23 03:25 34.13063 -118.03822 12027 ft 252 kts 285°
2026-04-23 03:26 34.13470 -118.05795 11951 ft 236 kts 285°
2026-04-23 03:26 34.13863 -118.07697 11666 ft 231 kts 285°
2026-04-23 03:26 34.14251 -118.09577 11410 ft 226 kts 285°
2026-04-23 03:26 34.14625 -118.11397 11163 ft 223 kts 285°
2026-04-23 03:27 34.14999 -118.13202 10920 ft 220 kts 285°
2026-04-23 03:27 34.15366 -118.14992 10669 ft 219 kts 285°
2026-04-23 03:27 34.15733 -118.16772 10419 ft 218 kts 285°
2026-04-23 03:27 34.16094 -118.18539 10171 ft 217 kts 285°
2026-04-23 03:28 34.16456 -118.20302 9929 ft 218 kts 286°
2026-04-23 03:28 34.16822 -118.22079 9692 ft 220 kts 285°
2026-04-23 03:28 34.17194 -118.23893 9450 ft 222 kts 285°
2026-04-23 03:28 34.17565 -118.25703 9212 ft 223 kts 286°
2026-04-23 03:29 34.17939 -118.27525 8965 ft 224 kts 285°
2026-04-23 03:29 34.18314 -118.29358 8724 ft 225 kts 285°
2026-04-23 03:29 34.18690 -118.31207 8478 ft 227 kts 285°
2026-04-23 03:29 34.19069 -118.33044 8238 ft 230 kts 285°
2026-04-23 03:30 34.19456 -118.34946 7994 ft 232 kts 285°
2026-04-23 03:30 34.19838 -118.36829 7757 ft 233 kts 285°
2026-04-23 03:30 34.20227 -118.38734 7512 ft 235 kts 286°
2026-04-23 03:30 34.20615 -118.40648 7264 ft 235 kts 286°
2026-04-23 03:31 34.21011 -118.42578 7017 ft 236 kts 285°
2026-04-23 03:31 34.21397 -118.44497 6778 ft 237 kts 286°
2026-04-23 03:31 34.21798 -118.46454 6531 ft 238 kts 286°
2026-04-23 03:31 34.22258 -118.48367 6271 ft 238 kts 298°
2026-04-23 03:32 34.23439 -118.49693 6047 ft 237 kts 337°
2026-04-23 03:32 34.24961 -118.50299 6013 ft 229 kts 337°
2026-04-23 03:32 34.26424 -118.51000 6000 ft 222 kts 340°
2026-04-23 03:32 34.27874 -118.51627 6001 ft 219 kts 338°
2026-04-23 03:33 34.29333 -118.52282 6009 ft 226 kts 339°
2026-04-23 03:33 34.30832 -118.52950 6011 ft 231 kts 339°
2026-04-23 03:33 34.32344 -118.53625 6010 ft 233 kts 339°
2026-04-23 03:33 34.33869 -118.54306 6010 ft 234 kts 339°
2026-04-23 03:34 34.35400 -118.54993 6006 ft 231 kts 339°
2026-04-23 03:34 34.36874 -118.55647 6000 ft 222 kts 339°
2026-04-23 03:34 34.38313 -118.56294 6000 ft 214 kts 339°
2026-04-23 03:34 34.39686 -118.56905 5998 ft 209 kts 338°
2026-04-23 03:35 34.41048 -118.57478 5999 ft 204 kts 340°
2026-04-23 03:35 34.42385 -118.58030 5999 ft 201 kts 340°
2026-04-23 03:35 34.43706 -118.58572 6003 ft 198 kts 340°
2026-04-23 03:35 34.45060 -118.58682 5993 ft 202 kts 17°
2026-04-23 03:36 34.46089 -118.57541 6009 ft 208 kts 60°
2026-04-23 03:36 34.46573 -118.55885 6011 ft 206 kts 68°
2026-04-23 03:36 34.46989 -118.54245 6005 ft 205 kts 76°
2026-04-23 03:36 34.46719 -118.52567 6013 ft 209 kts 123°
2026-04-23 03:37 34.45588 -118.51547 6015 ft 204 kts 166°
2026-04-23 03:37 34.44220 -118.51284 5878 ft 186 kts 177°
2026-04-23 03:37 34.42979 -118.51134 5608 ft 174 kts 178°
2026-04-23 03:37 34.41793 -118.51006 5350 ft 167 kts 179°
2026-04-23 03:38 34.40655 -118.50896 5092 ft 161 kts 179°
2026-04-23 03:38 34.39552 -118.50790 4851 ft 156 kts 179°
2026-04-23 03:38 34.38477 -118.50686 4612 ft 152 kts 179°
2026-04-23 03:38 34.37432 -118.50586 4385 ft 149 kts 179°
2026-04-23 03:39 34.36429 -118.50490 4146 ft 138 kts 179°
2026-04-23 03:39 34.35497 -118.50405 3928 ft 133 kts 179°
2026-04-23 03:39 34.34582 -118.50320 3738 ft 134 kts 179°
2026-04-23 03:39 34.33626 -118.50229 3549 ft 138 kts 178°
2026-04-23 03:40 34.32656 -118.50138 3345 ft 142 kts 178°
2026-04-23 03:40 34.31670 -118.50045 3119 ft 143 kts 177°
2026-04-23 03:40 34.30709 -118.49952 2875 ft 132 kts 178°
2026-04-23 03:40 34.29823 -118.49855 2625 ft 127 kts 176°
2026-04-23 03:41 34.28979 -118.49751 2309 ft 120 kts 178°
2026-04-23 03:41 34.28159 -118.49669 2056 ft 114 kts 178°
2026-04-23 03:41 34.27388 -118.49591 1882 ft 107 kts 176°
2026-04-23 03:41 34.26647 -118.49515 1729 ft 103 kts 177°
2026-04-23 03:42 34.25934 -118.49442 1520 ft 108 kts 178°
2026-04-23 03:42 34.25183 -118.49381 1455 ft 108 kts 179°
2026-04-23 03:42 34.24425 -118.49346 1384 ft 108 kts 181°
2026-04-23 03:42 34.23674 -118.49293 1283 ft 107 kts 179°
2026-04-23 03:43 34.22945 -118.49223 1146 ft 104 kts 178°
2026-04-23 03:43 34.22207 -118.49151 977 ft 105 kts 177°
2026-04-23 03:43 34.21501 -118.49078 818 ft 99 kts 178°
2026-04-23 03:43 34.20900 -118.49030 776 ft 71 kts 177°
2026-04-23 03:44 34.20560 -118.48996 769 ft 30 kts 163°
2026-04-23 03:44 34.20401 -118.48896 765 ft 16 kts 147°
2026-04-23 03:44 34.20388 -118.48868 765 ft 0 kts 87°
2026-04-23 03:45 34.20367 -118.48851 764 ft 7 kts 187°
2026-04-23 03:45 34.20282 -118.48855 763 ft 16 kts 178°
2026-04-23 03:46 34.20142 -118.48855 760 ft 20 kts 180°
2026-04-23 03:46 34.20076 -118.48830 758 ft 5 kts 96°
2026-04-23 03:46 34.20070 -118.48801 758 ft 2 kts 131°
2026-04-23 03:46 34.20056 -118.48779 756 ft 0 kts 97°
2026-04-23 03:47 34.20056 -118.48777 756 ft 0 kts 91°